Retour au catalogue

BEIDOU IGSO-7

ActifNavigationMEO
NORAD 43539·PAYLOAD·🇨🇳 China

Lancé Jul 9, 2018 depuis Xichang Satellite Launch Center

Loading…

Prochains Passages (prochaines 24 heures)

TLE

FraisSource: Space-Track

Époque: Sep 14, 2026, 12:15 UTC

1 43539U 18057A   26257.51054676 -.00000156  00000-0  00000-0 0  9994
2 43539  55.2132 162.2979 0108095 236.7633 250.7831  1.00276807 30025

Suivez BEIDOU IGSO-7 en temps réel avec AllMySat

Download on the App Store